NWK0361 YPXM-YPCC

Flight info

Callsign NWK0361
Flight time 1h 23m
Altitude 34000
Route TATOD DCT EMVAS DCT PCCNG DCT PCCNI DCT PCCNF DCT PCCNM
Aircraft A320/M-SDE3FGHIRWY/LB1

Departure

Time 2026-04-21 11:17
Airport Christmas Island International Airport (YPXM)

Arrival

Time 2026-04-21 12:41
Airport Cocos (Keeling) Islands Airport (YPCC)
Time Latitude Longitude Altitude Speed Heading
2026-04-21 10:58 -10.45132 105.68936 893 ft 0 kts 220°
2026-04-21 11:13 -10.45138 105.68935 892 ft 2 kts 172°
2026-04-21 11:13 -10.45135 105.68951 892 ft 3 kts 29°
2026-04-21 11:13 -10.45110 105.68971 892 ft 7 kts 58°
2026-04-21 11:14 -10.45097 105.69056 893 ft 13 kts 87°
2026-04-21 11:14 -10.45035 105.69104 893 ft 13 kts 359°
2026-04-21 11:14 -10.44888 105.69093 893 ft 27 kts 357°
2026-04-21 11:14 -10.44703 105.69076 893 ft 25 kts 358°
2026-04-21 11:15 -10.44535 105.69064 893 ft 23 kts 357°
2026-04-21 11:15 -10.44377 105.69051 893 ft 21 kts 357°
2026-04-21 11:15 -10.44228 105.69038 893 ft 20 kts 357°
2026-04-21 11:15 -10.44119 105.69010 893 ft 12 kts 326°
2026-04-21 11:16 -10.44109 105.69029 893 ft 7 kts 169°
2026-04-21 11:16 -10.44118 105.69030 893 ft 1 kts 178°
2026-04-21 11:16 -10.44131 105.69030 893 ft 0 kts 178°
2026-04-21 11:16 -10.44145 105.69031 893 ft 17 kts 178°
2026-04-21 11:17 -10.44510 105.69057 893 ft 84 kts 175°
2026-04-21 11:17 -10.45292 105.69123 893 ft 139 kts 175°
2026-04-21 11:17 -10.46353 105.69199 1205 ft 158 kts 174°
2026-04-21 11:17 -10.47471 105.69263 1885 ft 162 kts 174°
2026-04-21 11:18 -10.48584 105.69329 2696 ft 160 kts 171°
2026-04-21 11:18 -10.49677 105.69393 3225 ft 161 kts 169°
2026-04-21 11:18 -10.50821 105.69193 3593 ft 182 kts 211°
2026-04-21 11:18 -10.51540 105.68065 3968 ft 203 kts 255°
2026-04-21 11:19 -10.51743 105.66599 4361 ft 216 kts 264°
2026-04-21 11:19 -10.51903 105.65076 4845 ft 223 kts 261°
2026-04-21 11:19 -10.52148 105.63489 5313 ft 233 kts 260°
2026-04-21 11:19 -10.52419 105.61822 5714 ft 247 kts 259°
2026-04-21 11:20 -10.52744 105.59980 6002 ft 270 kts 259°
2026-04-21 11:20 -10.53089 105.58045 6403 ft 287 kts 258°
2026-04-21 11:20 -10.53456 105.56021 6877 ft 300 kts 259°
2026-04-21 11:20 -10.53833 105.53919 7576 ft 304 kts 259°
2026-04-21 11:21 -10.54209 105.51805 8298 ft 306 kts 259°
2026-04-21 11:21 -10.54587 105.49671 8991 ft 309 kts 260°
2026-04-21 11:21 -10.54967 105.47521 9633 ft 312 kts 260°
2026-04-21 11:21 -10.55344 105.45373 10220 ft 316 kts 260°
2026-04-21 11:22 -10.55745 105.43099 10547 ft 330 kts 260°
2026-04-21 11:22 -10.56150 105.40805 10987 ft 338 kts 260°
2026-04-21 11:22 -10.56567 105.38448 11573 ft 340 kts 260°
2026-04-21 11:22 -10.56988 105.36076 12151 ft 342 kts 260°
2026-04-21 11:23 -10.57411 105.33695 12672 ft 345 kts 260°
2026-04-21 11:23 -10.57838 105.31294 13188 ft 348 kts 260°
2026-04-21 11:23 -10.58269 105.28876 13710 ft 350 kts 260°
2026-04-21 11:23 -10.58702 105.26443 14203 ft 352 kts 260°
2026-04-21 11:24 -10.59136 105.23994 14667 ft 355 kts 260°
2026-04-21 11:24 -10.59575 105.21526 15123 ft 358 kts 260°
2026-04-21 11:24 -10.60018 105.19035 15575 ft 361 kts 260°
2026-04-21 11:24 -10.60466 105.16524 16004 ft 364 kts 260°
2026-04-21 11:25 -10.60920 105.13975 16449 ft 366 kts 260°
2026-04-21 11:25 -10.61371 105.11438 16890 ft 367 kts 260°
2026-04-21 11:25 -10.61827 105.08875 17317 ft 370 kts 260°
2026-04-21 11:25 -10.62283 105.06299 17742 ft 371 kts 260°
2026-04-21 11:26 -10.62739 105.03721 18145 ft 373 kts 260°
2026-04-21 11:26 -10.63199 105.01122 18540 ft 375 kts 260°
2026-04-21 11:26 -10.63660 104.98521 18925 ft 377 kts 259°
2026-04-21 11:26 -10.64127 104.95879 19311 ft 378 kts 259°
2026-04-21 11:27 -10.64591 104.93256 19684 ft 380 kts 259°
2026-04-21 11:27 -10.65056 104.90621 20045 ft 382 kts 259°
2026-04-21 11:27 -10.65524 104.87968 20387 ft 383 kts 259°
2026-04-21 11:27 -10.65995 104.85301 20725 ft 385 kts 259°
2026-04-21 11:28 -10.66471 104.82599 21058 ft 387 kts 259°
2026-04-21 11:28 -10.66945 104.79910 21387 ft 388 kts 258°
2026-04-21 11:28 -10.67419 104.77220 21697 ft 390 kts 258°
2026-04-21 11:28 -10.67900 104.74495 21995 ft 391 kts 258°
2026-04-21 11:29 -10.68380 104.71773 22306 ft 392 kts 258°
2026-04-21 11:29 -10.68858 104.69076 22605 ft 394 kts 258°
2026-04-21 11:29 -10.69347 104.66318 22912 ft 396 kts 258°
2026-04-21 11:29 -10.69833 104.63573 23206 ft 397 kts 258°
2026-04-21 11:30 -10.70320 104.60811 23504 ft 399 kts 258°
2026-04-21 11:30 -10.70805 104.58047 23794 ft 400 kts 258°
2026-04-21 11:30 -10.71294 104.55257 24086 ft 402 kts 258°
2026-04-21 11:30 -10.71789 104.52431 24375 ft 403 kts 258°
2026-04-21 11:31 -10.72279 104.49630 24654 ft 405 kts 258°
2026-04-21 11:31 -10.72772 104.46817 24930 ft 406 kts 258°
2026-04-21 11:31 -10.73267 104.43984 25200 ft 408 kts 258°
2026-04-21 11:31 -10.73764 104.41148 25468 ft 410 kts 258°
2026-04-21 11:32 -10.74262 104.38306 25741 ft 411 kts 259°
2026-04-21 11:32 -10.74760 104.35458 26003 ft 413 kts 259°
2026-04-21 11:32 -10.75263 104.32588 26275 ft 414 kts 259°
2026-04-21 11:32 -10.75769 104.29699 26536 ft 416 kts 259°
2026-04-21 11:33 -10.76277 104.26806 26794 ft 417 kts 259°
2026-04-21 11:33 -10.76789 104.23894 27050 ft 419 kts 259°
2026-04-21 11:33 -10.77297 104.21005 27303 ft 420 kts 259°
2026-04-21 11:33 -10.77809 104.18082 27568 ft 421 kts 259°
2026-04-21 11:34 -10.78327 104.15112 27825 ft 423 kts 259°
2026-04-21 11:34 -10.78836 104.12177 28079 ft 424 kts 259°
2026-04-21 11:34 -10.79348 104.09219 28319 ft 426 kts 259°
2026-04-21 11:34 -10.79860 104.06258 28540 ft 428 kts 259°
2026-04-21 11:35 -10.80373 104.03284 28784 ft 429 kts 259°
2026-04-21 11:35 -10.80887 104.00304 29037 ft 430 kts 259°
2026-04-21 11:35 -10.81408 103.97302 29287 ft 432 kts 259°
2026-04-21 11:35 -10.81930 103.94303 29536 ft 433 kts 259°
2026-04-21 11:36 -10.82455 103.91303 29768 ft 434 kts 260°
2026-04-21 11:36 -10.82985 103.88276 29995 ft 436 kts 260°
2026-04-21 11:36 -10.83516 103.85239 30224 ft 437 kts 260°
2026-04-21 11:36 -10.84046 103.82192 30468 ft 439 kts 260°
2026-04-21 11:37 -10.84574 103.79137 30688 ft 440 kts 260°
2026-04-21 11:37 -10.85101 103.76079 30899 ft 442 kts 260°
2026-04-21 11:37 -10.85629 103.73015 31153 ft 443 kts 260°
2026-04-21 11:37 -10.86160 103.69930 31377 ft 444 kts 260°
2026-04-21 11:38 -10.86691 103.66843 31642 ft 444 kts 260°
2026-04-21 11:38 -10.87222 103.63757 31981 ft 443 kts 261°
2026-04-21 11:38 -10.87751 103.60686 32284 ft 442 kts 260°
2026-04-21 11:38 -10.88285 103.57598 32497 ft 444 kts 261°
2026-04-21 11:39 -10.88816 103.54504 32731 ft 445 kts 261°
2026-04-21 11:39 -10.89346 103.51412 32981 ft 446 kts 261°
2026-04-21 11:39 -10.89879 103.48305 33269 ft 446 kts 261°
2026-04-21 11:39 -10.90414 103.45201 33565 ft 446 kts 261°
2026-04-21 11:40 -10.90945 103.42121 33804 ft 447 kts 261°
2026-04-21 11:40 -10.91483 103.38998 33873 ft 447 kts 261°
2026-04-21 11:40 -10.92551 103.32777 33879 ft 447 kts 261°
2026-04-21 11:41 -10.93613 103.26558 33882 ft 447 kts 261°
2026-04-21 11:41 -10.94672 103.20332 33885 ft 447 kts 261°
2026-04-21 11:42 -10.95740 103.14095 33881 ft 448 kts 261°
2026-04-21 11:42 -10.96803 103.07900 33880 ft 447 kts 261°
2026-04-21 11:43 -10.97870 103.01664 33880 ft 446 kts 261°
2026-04-21 11:43 -10.98959 102.95456 33882 ft 447 kts 259°
2026-04-21 11:44 -11.00197 102.89274 33877 ft 447 kts 259°
2026-04-21 11:44 -11.01445 102.83089 33880 ft 447 kts 259°
2026-04-21 11:45 -11.02691 102.76887 33881 ft 448 kts 259°
2026-04-21 11:45 -11.03930 102.70692 33883 ft 448 kts 259°
2026-04-21 11:46 -11.05161 102.64499 33882 ft 448 kts 259°
2026-04-21 11:46 -11.06392 102.58285 33880 ft 447 kts 259°
2026-04-21 11:47 -11.07615 102.52113 33880 ft 447 kts 259°
2026-04-21 11:47 -11.08846 102.45916 33883 ft 448 kts 259°
2026-04-21 11:48 -11.10081 102.39688 33888 ft 447 kts 259°
2026-04-21 11:48 -11.11300 102.33509 33891 ft 448 kts 259°
2026-04-21 11:49 -11.12524 102.27283 33897 ft 448 kts 259°
2026-04-21 11:49 -11.13742 102.21099 33896 ft 447 kts 259°
2026-04-21 11:50 -11.14959 102.14913 33898 ft 447 kts 259°
2026-04-21 11:50 -11.16177 102.08724 33898 ft 447 kts 259°
2026-04-21 11:51 -11.17400 102.02519 33892 ft 447 kts 259°
2026-04-21 11:51 -11.18619 101.96313 33888 ft 447 kts 259°
2026-04-21 11:52 -11.19823 101.90151 33886 ft 446 kts 259°
2026-04-21 11:52 -11.21038 101.83943 33884 ft 446 kts 259°
2026-04-21 11:53 -11.22244 101.77782 33885 ft 445 kts 259°
2026-04-21 11:53 -11.23454 101.71593 33884 ft 445 kts 259°
2026-04-21 11:54 -11.24653 101.65445 33882 ft 445 kts 259°
2026-04-21 11:54 -11.25862 101.59261 33883 ft 444 kts 259°
2026-04-21 11:55 -11.27059 101.53116 33883 ft 444 kts 259°
2026-04-21 11:55 -11.28256 101.46944 33883 ft 443 kts 259°
2026-04-21 11:56 -11.29442 101.40826 33886 ft 443 kts 259°
2026-04-21 11:56 -11.30639 101.34660 33887 ft 443 kts 259°
2026-04-21 11:57 -11.31831 101.28504 33896 ft 443 kts 259°
2026-04-21 11:57 -11.33018 101.22375 33902 ft 443 kts 259°
2026-04-21 11:58 -11.34202 101.16259 33903 ft 442 kts 259°
2026-04-21 11:58 -11.35386 101.10111 33907 ft 441 kts 259°
2026-04-21 11:59 -11.36564 101.03998 33900 ft 441 kts 259°
2026-04-21 11:59 -11.37746 100.97876 33899 ft 441 kts 259°
2026-04-21 12:00 -11.38934 100.91714 33903 ft 442 kts 259°
2026-04-21 12:00 -11.40110 100.85599 33903 ft 441 kts 259°
2026-04-21 12:01 -11.41289 100.79466 33900 ft 440 kts 259°
2026-04-21 12:01 -11.42450 100.73393 33900 ft 440 kts 259°
2026-04-21 12:02 -11.44206 100.64201 33902 ft 440 kts 259°
2026-04-21 12:03 -11.45377 100.58084 33906 ft 439 kts 259°
2026-04-21 12:03 -11.46537 100.52000 33911 ft 439 kts 259°
2026-04-21 12:04 -11.47541 100.45877 33912 ft 439 kts 262°
2026-04-21 12:04 -11.48412 100.39737 33910 ft 438 kts 262°
2026-04-21 12:05 -11.49279 100.33585 33912 ft 438 kts 262°
2026-04-21 12:05 -11.50150 100.27450 33911 ft 438 kts 262°
2026-04-21 12:06 -11.51014 100.21351 33909 ft 437 kts 262°
2026-04-21 12:06 -11.51890 100.15198 33908 ft 439 kts 262°
2026-04-21 12:07 -11.52759 100.09043 33911 ft 441 kts 262°
2026-04-21 12:07 -11.53614 100.02863 33909 ft 442 kts 262°
2026-04-21 12:08 -11.54478 99.96671 33905 ft 442 kts 262°
2026-04-21 12:08 -11.55361 99.90496 33898 ft 440 kts 262°
2026-04-21 12:09 -11.56247 99.84383 33897 ft 438 kts 262°
2026-04-21 12:09 -11.57120 99.78213 33889 ft 438 kts 263°
2026-04-21 12:10 -11.57963 99.72084 33889 ft 438 kts 263°
2026-04-21 12:10 -11.58800 99.65957 33893 ft 439 kts 262°
2026-04-21 12:11 -11.59648 99.59808 33892 ft 439 kts 262°
2026-04-21 12:11 -11.60508 99.53663 33897 ft 439 kts 262°
2026-04-21 12:12 -11.61365 99.47529 33899 ft 438 kts 262°
2026-04-21 12:12 -11.62225 99.41407 33897 ft 437 kts 262°
2026-04-21 12:13 -11.63080 99.35291 33896 ft 437 kts 262°
2026-04-21 12:13 -11.63929 99.29159 33901 ft 438 kts 263°
2026-04-21 12:14 -11.64774 99.23006 33900 ft 438 kts 263°
2026-04-21 12:14 -11.65609 99.16884 33905 ft 438 kts 262°
2026-04-21 12:15 -11.66451 99.10750 33909 ft 437 kts 262°
2026-04-21 12:15 -11.67305 99.04598 33911 ft 437 kts 263°
2026-04-21 12:16 -11.68150 98.98515 33911 ft 437 kts 263°
2026-04-21 12:16 -11.68988 98.92400 33914 ft 436 kts 263°
2026-04-21 12:17 -11.69823 98.86267 33914 ft 436 kts 263°
2026-04-21 12:17 -11.70652 98.80152 33915 ft 436 kts 263°
2026-04-21 12:18 -11.71483 98.74049 33914 ft 436 kts 263°
2026-04-21 12:18 -11.72319 98.67934 33916 ft 435 kts 263°
2026-04-21 12:19 -11.73149 98.61858 33917 ft 435 kts 263°
2026-04-21 12:19 -11.73983 98.55729 33913 ft 435 kts 263°
2026-04-21 12:19 -11.74395 98.52696 33688 ft 432 kts 263°
2026-04-21 12:20 -11.74803 98.49676 32718 ft 438 kts 263°
2026-04-21 12:20 -11.75216 98.46594 31612 ft 448 kts 262°
2026-04-21 12:20 -11.75641 98.43429 30678 ft 454 kts 262°
2026-04-21 12:20 -11.76071 98.40241 30114 ft 450 kts 262°
2026-04-21 12:21 -11.76496 98.37098 29621 ft 445 kts 261°
2026-04-21 12:21 -11.76910 98.34023 29122 ft 440 kts 261°
2026-04-21 12:21 -11.77326 98.30936 28613 ft 436 kts 261°
2026-04-21 12:21 -11.77739 98.27876 28100 ft 432 kts 261°
2026-04-21 12:22 -11.78145 98.24867 27614 ft 428 kts 261°
2026-04-21 12:22 -11.78547 98.21886 27138 ft 424 kts 261°
2026-04-21 12:22 -11.78943 98.18930 26668 ft 419 kts 261°
2026-04-21 12:22 -11.79338 98.15994 26192 ft 416 kts 261°
2026-04-21 12:23 -11.79728 98.13101 25725 ft 412 kts 261°
2026-04-21 12:23 -11.80116 98.10228 25257 ft 408 kts 262°
2026-04-21 12:23 -11.80497 98.07411 24799 ft 404 kts 262°
2026-04-21 12:23 -11.80878 98.04578 24321 ft 401 kts 262°
2026-04-21 12:24 -11.81252 98.01784 23898 ft 396 kts 262°
2026-04-21 12:24 -11.81624 97.98999 23517 ft 391 kts 262°
2026-04-21 12:24 -11.81987 97.96277 23048 ft 388 kts 261°
2026-04-21 12:24 -11.82347 97.93566 22612 ft 385 kts 262°
2026-04-21 12:25 -11.82705 97.90881 22208 ft 384 kts 262°
2026-04-21 12:25 -11.83067 97.88172 21816 ft 383 kts 262°
2026-04-21 12:25 -11.83420 97.85523 21431 ft 382 kts 262°
2026-04-21 12:25 -11.83779 97.82828 21039 ft 380 kts 262°
2026-04-21 12:26 -11.84131 97.80170 20651 ft 378 kts 262°
2026-04-21 12:26 -11.84481 97.77536 20261 ft 377 kts 262°
2026-04-21 12:26 -11.84834 97.74876 19864 ft 375 kts 262°
2026-04-21 12:26 -11.85177 97.72282 19477 ft 373 kts 262°
2026-04-21 12:27 -11.85527 97.69638 19081 ft 372 kts 262°
2026-04-21 12:27 -11.85872 97.67042 18691 ft 371 kts 262°
2026-04-21 12:27 -11.86216 97.64446 18297 ft 369 kts 262°
2026-04-21 12:27 -11.86560 97.61852 17902 ft 368 kts 262°
2026-04-21 12:28 -11.86903 97.59261 17470 ft 368 kts 262°
2026-04-21 12:28 -11.87244 97.56683 17032 ft 367 kts 262°
2026-04-21 12:28 -11.87584 97.54104 16596 ft 367 kts 262°
2026-04-21 12:28 -11.87922 97.51537 16161 ft 366 kts 262°
2026-04-21 12:29 -11.88260 97.48972 15720 ft 365 kts 262°
2026-04-21 12:29 -11.88596 97.46420 15282 ft 364 kts 262°
2026-04-21 12:29 -11.88934 97.43864 14841 ft 363 kts 262°
2026-04-21 12:29 -11.89267 97.41342 14404 ft 363 kts 262°
2026-04-21 12:30 -11.89602 97.38797 13962 ft 362 kts 262°
2026-04-21 12:30 -11.89937 97.36255 13519 ft 361 kts 262°
2026-04-21 12:30 -11.90270 97.33725 13075 ft 360 kts 262°
2026-04-21 12:30 -11.90602 97.31199 12628 ft 359 kts 262°
2026-04-21 12:31 -11.90932 97.28682 12182 ft 358 kts 262°
2026-04-21 12:31 -11.91261 97.26166 11735 ft 357 kts 262°
2026-04-21 12:31 -11.91586 97.23676 11263 ft 351 kts 262°
2026-04-21 12:31 -11.91905 97.21240 10757 ft 337 kts 263°
2026-04-21 12:32 -11.92207 97.18926 10260 ft 325 kts 263°
2026-04-21 12:32 -11.92500 97.16676 9760 ft 314 kts 263°
2026-04-21 12:32 -11.92779 97.14527 9267 ft 306 kts 263°
2026-04-21 12:32 -11.93060 97.12364 8768 ft 309 kts 263°
2026-04-21 12:33 -11.93343 97.10175 8269 ft 314 kts 262°
2026-04-21 12:33 -11.93632 97.07952 7769 ft 318 kts 262°
2026-04-21 12:33 -11.93926 97.05696 7268 ft 323 kts 262°
2026-04-21 12:33 -11.94220 97.03440 6773 ft 324 kts 262°
2026-04-21 12:34 -11.94515 97.01181 6267 ft 315 kts 262°
2026-04-21 12:34 -11.94799 96.98991 5762 ft 306 kts 262°
2026-04-21 12:34 -11.95069 96.96901 5265 ft 297 kts 262°
2026-04-21 12:34 -11.95337 96.94834 4763 ft 293 kts 261°
2026-04-21 12:35 -11.95607 96.92765 4256 ft 292 kts 261°
2026-04-21 12:35 -11.95869 96.90740 3747 ft 290 kts 261°
2026-04-21 12:35 -11.96132 96.88700 3216 ft 287 kts 261°
2026-04-21 12:35 -11.96390 96.86709 2714 ft 281 kts 261°
2026-04-21 12:36 -11.96845 96.84843 2435 ft 263 kts 239°
2026-04-21 12:36 -11.97970 96.83472 2283 ft 243 kts 208°
2026-04-21 12:36 -11.99456 96.82820 2211 ft 226 kts 189°
2026-04-21 12:36 -12.00950 96.82469 2121 ft 217 kts 185°
2026-04-21 12:37 -12.02419 96.82177 2014 ft 210 kts 184°
2026-04-21 12:37 -12.03827 96.81906 1989 ft 199 kts 184°
2026-04-21 12:37 -12.05153 96.81646 1977 ft 187 kts 184°
2026-04-21 12:37 -12.06425 96.81386 2108 ft 185 kts 184°
2026-04-21 12:38 -12.07707 96.81144 2483 ft 187 kts 181°
2026-04-21 12:38 -12.09001 96.80971 2570 ft 179 kts 179°
2026-04-21 12:38 -12.10205 96.80863 2422 ft 167 kts 176°
2026-04-21 12:38 -12.11348 96.80798 2310 ft 164 kts 173°
2026-04-21 12:39 -12.12487 96.80801 2068 ft 159 kts 170°
2026-04-21 12:39 -12.13556 96.80874 1765 ft 150 kts 165°
2026-04-21 12:39 -12.14580 96.81019 1405 ft 146 kts 163°
2026-04-21 12:39 -12.15558 96.81268 1058 ft 140 kts 153°
2026-04-21 12:40 -12.16429 96.81679 695 ft 137 kts 145°
2026-04-21 12:40 -12.17219 96.82194 332 ft 136 kts 145°
2026-04-21 12:40 -12.18018 96.82692 62 ft 128 kts 146°
2026-04-21 12:40 -12.18726 96.83124 26 ft 95 kts 150°
2026-04-21 12:41 -12.19043 96.83317 25 ft 20 kts 151°
2026-04-21 12:41 -12.19117 96.83363 26 ft 4 kts 243°
2026-04-21 12:41 -12.19060 96.83322 25 ft 20 kts 330°
2026-04-21 12:41 -12.18867 96.83210 26 ft 29 kts 327°
2026-04-21 12:42 -12.18744 96.83120 26 ft 15 kts 284°
2026-04-21 12:42 -12.18779 96.83034 27 ft 6 kts 260°
2026-04-21 12:42 -12.18775 96.83003 27 ft 2 kts 284°
2026-04-21 12:42 -12.18774 96.83000 27 ft 0 kts 284°